Bookmark and Share
Track history (hours):
 

Cape Bata

Last reported at 2014-Apr-18 13:16 UTC. Time now 2014-Apr-19 09:24 UTC.
Position N 38°17' W 009°40'.

Length 274 m; draft 15.9 m.

Type: Tanker. MMSI: 538090162.

NotesDate/timePositionNaut miles runAvg speedWind from/ knotsBaromVisibWave heightAir tempDewpointWater temp
2014-Apr-18 13:16N 38°17' W 009°40'1412.1
2014-Apr-18 12:05N 38°10' W 009°24'612.1
2014-Apr-18 11:33N 38°07' W 009°16'1212.2
2014-Apr-18 10:33N 38°03' W 009°02'1010.1
2014-Apr-18 09:33N 37°55' W 008°53'1 0.0
2014-Apr-17 06:19N 37°57' W 008°53'3 3.7
2014-Apr-17 05:33N 37°54' W 008°53'1 1.1
2014-Apr-17 04:33N 37°53' W 008°53'0 0.0
2014-Apr-17 03:33N 37°53' W 008°53'0 0.0
2014-Apr-17 02:33N 37°53' W 008°53'0 0.0
2014-Apr-17 01:33N 37°53' W 008°53'0 0.1
2014-Apr-17 00:33N 37°53' W 008°53'0 0.0
2014-Apr-16 23:33N 37°53' W 008°53'0 0.0
2014-Apr-16 22:33N 37°53' W 008°53'0 0.0
2014-Apr-16 21:33N 37°53' W 008°53'0 0.0
2014-Apr-16 20:30N 37°53' W 008°53'0 0.0
2014-Apr-16 19:33N 37°53' W 008°53'0 0.2
2014-Apr-16 18:34N 37°53' W 008°53'4 4.0
2014-Apr-16 17:33N 37°51' W 008°58'1010.3
2014-Apr-16 16:33N 37°45' W 009°09'1312.5
2014-Apr-16 15:29N 37°35' W 009°21'  
2014-Apr-11 08:34N 13°28' W 018°06'7612.3
2014-Apr-11 02:23N 12°12' W 018°03'13811.4
2014-Apr-10 14:22N 10°04' W 017°13'2812.3
2014-Apr-10 12:06N 09°42' W 016°55'7012.1
2014-Apr-10 06:19N 08°48' W 016°10'912.3
2014-Apr-10 05:34N 08°41' W 016°04'1312.1
2014-Apr-10 04:30N 08°31' W 015°56'  

Dump ship's entire track history

sailing weather and tide predictions

Cape Bata — V7EF2 — position and weather